Chicago Executive, IL

7:03 PM CST on November 18, 2019 (GMT -0600)
Chicago Executive

Weather History for KPWK - September, 2019

Change the Weather History Date:

Monday, September 16, 2019

  Actual Average Record
Temperature  
Mean Temperature 68 °F 64 °F  
Max Temperature 73 °F 74 °F 89 °F (2017)
Min Temperature 64 °F 54 °F 43 °F (2014)
Degree Days  
Heating Degree Days 0 3  
Month to date heating degree days 2 26  
Since 1 July heating degree days 2 36  
Cooling Degree Days 4 2  
Month to date cooling degree days 92 60  
Year to date cooling degree days 899 757  
Growing Degree Days 18 (Base 50)    
Moisture  
Dew Point 64 °F    
Average Humidity 85    
Maximum Humidity 93    
Minimum Humidity 71    
Precipitation  
Precipitation 0.00 in 0.10 in 0.16 in (2010)
Month to date precipitation 4.24 1.69  
Year to date precipitation 33.56 24.17  
Sea Level Pressure  
Sea Level Pressure 30.12 in    
Wind  
Wind Speed 4 mph ()    
Max Wind Speed 12 mph    
Max Gust Speed 17 mph    
Visibility 7.6 miles    
Events      
T = Trace of Precipitation, MM = Missing Value Source: Averaged Metar Reports

Daily Weather History Graph

Daily Weather History Graph

Search for Another Location

Airport or City:

Astronomy

Sep. 16, 2019 Rise Set
Actual Time 6:32 AM CDT 6:59 PM CDT
Civil Twilight 6:04 AM CDT 7:27 PM CDT
Nautical Twilight 5:31 AM CDT 8:00 PM CDT
Astronomical Twilight 4:57 AM CDT 8:34 PM CDT
Moon 8:32 PM CDT (9/16) 8:41 AM CDT (9/16)
Length of Visible Light 13h 23m
Length of Day
12h 27m
Waning Gibbous, 94% of the Moon is Illuminated
Sep 16
Waning Gibbous
Sep 21
Last Quarter
Sep 28
New
Oct 5
First Quarter
Oct 13
Full

Hourly Weather History & Observations

Time (CDT) Temp. Dew Point Humidity Pressure Visibility Wind Dir Wind Speed Gust Speed Precip Events Conditions
12:07 AM 73.0 °F 69.1 °F 87% 30.04 in 10.0 mi Calm Calm - N/A   Overcast
12:52 AM 72.0 °F 66.9 °F 84% 30.03 in 10.0 mi North 3.5 mph - N/A   Partly Cloudy
1:52 AM 72.0 °F 68.0 °F 87% 30.04 in 10.0 mi NW 3.5 mph - N/A   Overcast
2:52 AM 71.1 °F 66.0 °F 84% 30.04 in 10.0 mi NW 4.6 mph - N/A   Clear
3:52 AM 70.0 °F 66.9 °F 90% 30.05 in 7.0 mi Calm Calm - N/A   Clear
4:14 AM 70.0 °F 66.9 °F 90% 30.07 in 8.0 mi Calm Calm - N/A   Scattered Clouds
4:24 AM 70.0 °F 66.9 °F 90% 30.08 in 7.0 mi Calm Calm - N/A   Mostly Cloudy
4:52 AM 70.0 °F 66.9 °F 90% 30.07 in 4.0 mi North 5.8 mph - N/A   Overcast
5:03 AM 70.0 °F 66.9 °F 90% 30.08 in 4.0 mi North 5.8 mph - N/A   Overcast
5:52 AM 70.0 °F 66.9 °F 90% 30.08 in 7.0 mi North 4.6 mph - N/A   Overcast
6:33 AM 70.0 °F 66.9 °F 90% 30.11 in 7.0 mi NNW 4.6 mph - N/A   Overcast
6:52 AM 70.0 °F 66.9 °F 90% 30.10 in 5.0 mi North 5.8 mph - N/A   Overcast
7:32 AM 70.0 °F 66.0 °F 87% 30.12 in 6.0 mi North 6.9 mph - N/A   Overcast
7:52 AM 70.0 °F 66.0 °F 87% 30.12 in 6.0 mi North 8.1 mph - N/A   Overcast
8:52 AM 71.1 °F 66.0 °F 84% 30.14 in 5.0 mi NE 5.8 mph - N/A   Haze
9:52 AM 71.1 °F 64.9 °F 81% 30.15 in 8.0 mi ENE 6.9 mph - N/A   Overcast
10:52 AM 69.1 °F 63.0 °F 81% 30.16 in 10.0 mi NE 11.5 mph - N/A   Overcast
11:12 AM 69.1 °F 63.0 °F 81% 30.17 in 10.0 mi ENE 10.4 mph - N/A   Overcast
12:03 PM 70.0 °F 63.0 °F 78% 30.17 in 10.0 mi ENE 9.2 mph - N/A   Overcast
12:52 PM 71.1 °F 64.0 °F 78% 30.15 in 10.0 mi ENE 9.2 mph - N/A   Mostly Cloudy
1:28 PM 72.0 °F 64.0 °F 76% 30.15 in 10.0 mi NE 9.2 mph - N/A   Scattered Clouds
1:52 PM 72.0 °F 63.0 °F 73% 30.14 in 10.0 mi NE 10.4 mph - N/A   Partly Cloudy
2:52 PM 72.0 °F 63.0 °F 73% 30.13 in 10.0 mi ENE 9.2 mph - N/A   Partly Cloudy
3:52 PM 72.0 °F 62.1 °F 71% 30.12 in 10.0 mi ENE 5.8 mph - N/A   Clear
4:52 PM 72.0 °F 62.1 °F 71% 30.12 in 10.0 mi NE 6.9 mph - N/A   Clear
5:52 PM 70.0 °F 62.1 °F 76% 30.13 in 10.0 mi NE 5.8 mph - N/A   Clear
6:52 PM 66.9 °F 62.1 °F 84% 30.13 in 10.0 mi ENE 3.5 mph - N/A   Scattered Clouds
7:52 PM 66.0 °F 62.1 °F 87% 30.13 in 8.0 mi NE 8.1 mph - N/A   Overcast
8:01 PM 66.0 °F 63.0 °F 90% 30.14 in 7.0 mi ENE 3.5 mph - N/A   Overcast
8:22 PM 66.0 °F 62.1 °F 87% 30.14 in 6.0 mi NNE 5.8 mph - N/A   Overcast
8:52 PM 66.0 °F 62.1 °F 87% 30.13 in 5.0 mi NE 3.5 mph - N/A   Overcast
9:52 PM 64.9 °F 62.1 °F 90% 30.14 in 3.0 mi ENE 3.5 mph - N/A   Overcast
10:04 PM 64.9 °F 62.1 °F 90% 30.15 in 1.8 mi East 6.9 mph - N/A   Overcast
10:17 PM 64.9 °F 63.0 °F 93% 30.15 in 3.0 mi East 3.5 mph - N/A   Overcast
10:52 PM 66.0 °F 63.0 °F 90% 30.15 in 6.0 mi ENE 3.5 mph - N/A   Overcast
11:20 PM 66.0 °F 63.0 °F 90% 30.15 in 8.0 mi East 4.6 mph - N/A   Overcast
11:52 PM 66.0 °F 62.1 °F 87% 30.14 in 10.0 mi East 4.6 mph - N/A   Overcast